Location: Bosdarros
(43.2167°N, 0.3667°W)
Time: 15:54:26
(UTC+00:00)

Cosmos 2251 Rocket - Pass Details

Date: 22 April 2021
Orbit: 765 x 791 km, 74.0° (Epoch: 13 May)

Event Time Altitude Azimuth Distance (km) Brightness Sun altitude
Rises 19:18:53 0° 190° (S) 3,271 6.6 -5.3°
Reaches altitude 10° 19:21:17 10° 188° (S) 2,345 5.9 -5.7°
Maximum altitude 19:26:34 66° 107° (ESE) 858 3.6 -6.6°
Drops below altitude 10° 19:31:51 10° 26° (NNE) 2,349 6.0 -7.5°
Sets 19:34:15 0° 23° (NNE) 3,277 6.8 -7.9°
